1 juli 2022

Tijd Code Weer Temp. Zicht Plafond Wind METAR/SPECI
9:00 p.m.
V
73 °F 6¼ mi+ - 290° 290° 8 kt METAR LFCK 011900Z AUTO 29008KT CAVOK 23/09 Q1020 NOSIG
8:30 p.m.
V
75 °F 6¼ mi+ - 290° 290° 9 kt METAR LFCK 011830Z AUTO 29009KT CAVOK 24/08 Q1020 NOSIG
8:00 p.m.
V
75 °F 6¼ mi+ - 330° 330° 9 kt METAR LFCK 011800Z AUTO 33009KT 290V350 CAVOK 24/09 Q1020 NOSIG
7:30 p.m.
V
75 °F 6¼ mi+ - 330° 330° 10 kt METAR LFCK 011730Z AUTO 33010KT CAVOK 24/08 Q1020 NOSIG
7:00 p.m.
V
75 °F 6¼ mi+ - 330° 330° 9 kt METAR LFCK 011700Z AUTO 33009KT CAVOK 24/09 Q1020 NOSIG
6:30 p.m.
V
75 °F 6¼ mi+ - 330° 330° 8 kt METAR LFCK 011630Z AUTO 33008KT 300V010 CAVOK 24/08 Q1020 NOSIG
6:00 p.m.
V
75 °F 6¼ mi+ - Var Var 9 kt METAR LFCK 011600Z AUTO VRB09KT CAVOK 24/08 Q1020 NOSIG
5:30 p.m.
V
75 °F 6¼ mi+ - 340° 340° 10 kt METAR LFCK 011530Z AUTO 34010KT 310V020 CAVOK 24/09 Q1020 NOSIG
5:00 p.m.
V
75 °F 6¼ mi+ - 340° 340° 10 kt METAR LFCK 011500Z AUTO 34010KT 280V010 CAVOK 24/09 Q1020 NOSIG
4:30 p.m.
V
73 °F 6¼ mi+ - 320° 320° 9 kt METAR LFCK 011430Z AUTO 32009KT 280V350 CAVOK 23/08 Q1021 NOSIG
4:00 p.m.
V
73 °F 6¼ mi+ - 340° 340° 7 kt METAR LFCK 011400Z AUTO 34007KT 290V030 CAVOK 23/09 Q1021 NOSIG
3:30 p.m.
V
73 °F 6¼ mi+ - 340° 340° 10 kt METAR LFCK 011330Z AUTO 34010KT 290V020 CAVOK 23/10 Q1021 NOSIG
3:00 p.m.
V
72 °F 6¼ mi+ - 300° 300° 10 kt METAR LFCK 011300Z AUTO 30010KT 260V340 CAVOK 22/09 Q1021 NOSIG
2:30 p.m.
V
72 °F 6¼ mi+ - 360° 360° 9 kt METAR LFCK 011230Z AUTO 36009KT 330V040 CAVOK 22/08 Q1021 NOSIG
2:00 p.m.
V
70 °F 6¼ mi+ - 350° 350° 9 kt METAR LFCK 011200Z AUTO 35009KT 290V050 9999 FEW047 21/09 Q1021 NOSIG
1:30 p.m.
V
70 °F 6¼ mi+ - 350° 350° 10 kt METAR LFCK 011130Z AUTO 35010KT 320V040 9999 FEW046 21/09 Q1022 NOSIG
1:00 p.m.
V
70 °F 6¼ mi+ - 340° 340° 9 kt METAR LFCK 011100Z AUTO 34009KT 270V050 9999 FEW042 21/10 Q1022 NOSIG
12:30 p.m.
V
68 °F 6¼ mi+ - 350° 350° 10 kt METAR LFCK 011030Z AUTO 35010KT 310V030 9999 SCT041 20/10 Q1021 NOSIG
12:00 p.m.
V
66 °F 6¼ mi+ 3.700 ft 340° 340° 9 kt METAR LFCK 011000Z AUTO 34009KT 9999 BKN037 19/10 Q1022 NOSIG
11:30 a.m.
V
66 °F 6¼ mi+ 4.000 ft 350° 350° 9 kt METAR LFCK 010930Z AUTO 35009KT 300V020 9999 BKN040 19/11 Q1022 NOSIG
11:00 a.m.
V
63 °F 6¼ mi+ 3.000 ft 320° 320° 8 kt METAR LFCK 010900Z AUTO 32008KT 9999 BKN030 BKN037 17/10 Q1022 NOSIG
10:30 a.m.
V
64 °F 6¼ mi+ - 350° 350° 7 kt METAR LFCK 010830Z AUTO 35007KT 320V030 9999 SCT026 18/11 Q1022 NOSIG
10:00 a.m.
V
61 °F 6¼ mi+ - 310° 310° 6 kt METAR LFCK 010800Z AUTO 31006KT 300V360 9999 SCT023 16/11 Q1022 NOSIG
9:30 a.m.
V
61 °F 6¼ mi+ - 350° 350° 5 kt METAR LFCK 010730Z AUTO 35005KT 300V030 9999 FEW025 16/11 Q1022 NOSIG
9:00 a.m.
M
59 °F 6¼ mi+ 2.500 ft 300° 300° 6 kt METAR LFCK 010700Z AUTO 30006KT 280V350 9999 SCT014 BKN025 15/11 Q1022 NOSIG
8:30 a.m.
M
59 °F 6¼ mi+ 1.300 ft 280° 280° 6 kt METAR LFCK 010630Z AUTO 28006KT 9999 SCT008 BKN013 15/12 Q1022 BECMG SCT020
8:00 a.m.
M
57 °F 6¼ mi+ 1.000 ft 290° 290° 4 kt METAR LFCK 010600Z AUTO 29004KT 250V320 9999 BKN010 OVC025 14/12 Q1022 BECMG SCT020
7:30 a.m.
M
57 °F 6¼ mi+ 2.100 ft 290° 290° 5 kt METAR LFCK 010530Z AUTO 29005KT 9999 FEW010 BKN021 OVC026 14/12 Q1021
7:00 a.m.
M
57 °F 6¼ mi+ 1.000 ft 270° 270° 4 kt METAR LFCK 010500Z AUTO 27004KT 9999 BKN010 BKN017 OVC035 14/12 Q1021
6:30 a.m.
I
57 °F 6¼ mi+ 900 ft 270° 270° 4 kt METAR LFCK 010430Z AUTO 27004KT 9999 BKN009 OVC021 14/12 Q1021
6:00 a.m.
M
57 °F 6¼ mi+ 1.000 ft 280° 280° 3 kt METAR LFCK 010400Z AUTO 28003KT 9999 BKN010 BKN015 OVC026 14/12 Q1021
5:30 a.m.
M
57 °F 6¼ mi+ 1.000 ft 280° 280° 4 kt METAR LFCK 010330Z AUTO 28004KT 9999 OVC010 14/12 Q1021
5:00 a.m.
M
57 °F 6¼ mi+ 1.300 ft 270° 270° 5 kt METAR LFCK 010300Z AUTO 27005KT 9999 FEW008 BKN013 OVC018 14/13 Q1021
4:30 a.m.
I
57 °F 6¼ mi+ 700 ft 290° 290° 4 kt METAR LFCK 010230Z AUTO 29004KT 9999 BKN007 BKN011 OVC018 14/13 Q1021
4:00 a.m.
M
57 °F 6¼ mi+ 1.000 ft 280° 280° 4 kt METAR LFCK 010200Z AUTO 28004KT 9999 BKN010 OVC015 14/13 Q1021
3:30 a.m.
M
57 °F 6¼ mi+ 1.100 ft 310° 310° 5 kt METAR LFCK 010130Z AUTO 31005KT 9999 BKN011 BKN017 BKN024 14/12 Q1021
3:00 a.m.
V
57 °F 6¼ mi+ 8.800 ft 320° 320° 5 kt METAR LFCK 010100Z AUTO 32005KT 9999 SCT015 BKN088 BKN120 14/12 Q1021
2:30 a.m.
V
57 °F 6¼ mi+ 8.800 ft 330° 330° 6 kt METAR LFCK 010030Z AUTO 33006KT 9999 SCT015 BKN088 BKN110 14/12 Q1021
2:00 a.m.
M
57 °F 6¼ mi+ 1.300 ft 320° 320° 4 kt METAR LFCK 010000Z AUTO 32004KT 9999 BKN013/// OVC120/// ///TCU 14/12 Q1021
1:30 a.m.
V
59 °F 6¼ mi+ 13.000 ft 330° 330° 7 kt METAR LFCK 302330Z AUTO 33007KT 9999 SCT014/// BKN130/// OVC160/// ///CB 15/12 Q1021
1:00 a.m.
M
59 °F 6¼ mi+ 1.800 ft 340° 340° 8 kt METAR LFCK 302300Z AUTO 34008KT 9999 BKN018/// OVC130/// ///TCU 15/12 Q1021
12:30 a.m.
M
59 °F 6¼ mi+ 1.800 ft 320° 320° 7 kt METAR LFCK 302230Z AUTO 32007KT 9999 BKN018/// OVC120/// ///CB 15/12 Q1021
12:00 a.m.
V
61 °F 6¼ mi+ - 310° 310° 6 kt METAR LFCK 302200Z AUTO 31006KT 9999 ///TCU 16/12 Q1021

30 juni 2022

Tijd Code Weer Temp. Zicht Plafond Wind METAR/SPECI
11:30 p.m.
V
61 °F 6¼ mi+ 12.000 ft 300° 300° 7 kt METAR LFCK 302130Z AUTO 30007KT 9999 FEW026 BKN120 OVC160 16/12 Q1021
11:00 p.m.
V
61 °F 6¼ mi+ - 300° 300° 8 kt METAR LFCK 302100Z AUTO 30008KT CAVOK 16/12 Q1020 NOSIG
10:30 p.m.
V
61 °F 6¼ mi+ 25.000 ft 300° 300° 9 kt METAR LFCK 302030Z AUTO 30009KT 9999 FEW031 SCT150 BKN250 16/12 Q1020 NOSIG
10:00 p.m.
V
63 °F 6¼ mi+ 3.100 ft 300° 300° 8 kt METAR LFCK 302000Z AUTO 30008KT 9999 BKN031/// OVC039/// ///CB 17/12 Q1019 BECMG BKN035
9:30 p.m.
V
63 °F 6¼ mi+ 4.000 ft 320° 320° 5 kt METAR LFCK 301930Z AUTO 32005KT 9999 FEW033/// BKN040/// BKN072/// ///TCU 17/12 Q1019 BECMG BKN035
9:00 p.m.
V
63 °F 6¼ mi+ 4.000 ft 330° 330° 7 kt METAR LFCK 301900Z AUTO 33007KT 9999 FEW029 BKN040 BKN070 17/12 Q1019 NOSIG
8:30 p.m.
V
64 °F 6¼ mi+ 7.000 ft 320° 320° 7 kt METAR LFCK 301830Z AUTO 32007KT 9999 FEW027 OVC070 18/12 Q1018 NOSIG
8:00 p.m.
V
63 °F 6¼ mi+ 6.800 ft 310° 310° 6 kt METAR LFCK 301800Z AUTO 31006KT 9999 FEW025 SCT039 OVC068 17/12 Q1018 NOSIG
7:30 p.m.
V
63 °F 6¼ mi+ 3.500 ft 320° 320° 8 kt METAR LFCK 301730Z AUTO 32008KT 9999 FEW026 OVC035 17/12 Q1018 NOSIG
7:00 p.m.
V
64 °F 6¼ mi+ 4.200 ft 320° 320° 10 kt METAR LFCK 301700Z AUTO 32010KT 9999 FEW025 BKN042 BKN052 18/13 Q1018 NOSIG
6:30 p.m.
V
64 °F 6¼ mi+ 4.300 ft 320° 320° 10 kt METAR LFCK 301630Z AUTO 32010KT 9999 FEW026 SCT036 OVC043 18/12 Q1018 NOSIG
6:00 p.m.
V
64 °F 6¼ mi+ 3.300 ft 320° 320° 8 kt METAR LFCK 301600Z AUTO 32008KT 9999 SCT025 BKN033 OVC039 18/13 Q1018 NOSIG
5:30 p.m.
M
63 °F 6¼ mi+ 2.100 ft 360° 360° 5 kt METAR LFCK 301530Z AUTO 36005KT 9999 OVC021 17/13 Q1018 NOSIG
5:00 p.m.
M
63 °F 6¼ mi+ 2.400 ft 360° 360° 4 kt METAR LFCK 301500Z AUTO 36004KT 300V030 9999 FEW018 BKN024 BKN032 17/14 Q1018 NOSIG
4:30 p.m.
M
63 °F 6¼ mi+ 2.000 ft 010° 010° 3 kt METAR LFCK 301430Z AUTO 01003KT 9999 BKN020 OVC025 17/14 Q1018 BECMG 29010KT
4:00 p.m.
M
61 °F 6¼ mi+ 1.800 ft 360° 360° 3 kt METAR LFCK 301400Z AUTO 36003KT 340V040 9999 FEW012 BKN018 OVC026 16/14 Q1018 NOSIG
3:30 p.m.
M
61 °F 6¼ mi+ 1.700 ft 330° 330° 3 kt METAR LFCK 301330Z AUTO 33003KT 280V350 9999 BKN017 OVC023 16/14 Q1018 NOSIG
3:00 p.m.
M
61 °F 6¼ mi+ 1.800 ft 300° 300° 7 kt METAR LFCK 301300Z AUTO 30007KT 9999 OVC018 16/13 Q1018 TEMPO 2000 BR OVC004
2:30 p.m.
M
61 °F 6¼ mi+ 1.200 ft 300° 300° 7 kt METAR LFCK 301230Z AUTO 30007KT 9999 BKN012 BKN017 OVC022 16/14 Q1018 TEMPO 2000 BR BECMG BKN030
2:00 p.m.
I
59 °F 6¼ mi+ 700 ft 280° 280° 7 kt METAR LFCK 301200Z AUTO 28007KT 9999 BKN007 OVC012 15/14 Q1017 TEMPO 2000 BR OVC004
1:30 p.m.
I
59 °F 1¾ mi 600 ft 270° 270° 10 kt METAR LFCK 301130Z AUTO 27010KT 2800 BR BKN006 OVC013 15/14 Q1017 BECMG 9999 NSW BKN016
1:00 p.m.
L
59 °F 2¼ mi 400 ft 270° 270° 9 kt METAR LFCK 301100Z AUTO 27009KT 3600 BR BKN004 BKN015 OVC020 15/14 Q1017 BECMG 9999 NSW BKN016
12:30 p.m.
L
59 °F 2 mi 400 ft 280° 280° 8 kt METAR LFCK 301030Z AUTO 28008KT 3200 BR BKN004 OVC010 15/14 Q1017 BECMG 9999 NSW BKN016
12:00 p.m.
I
59 °F 1¾ mi 700 ft 280° 280° 9 kt METAR LFCK 301000Z AUTO 28009KT 2900 BR OVC007 15/14 Q1017 BECMG 9999 NSW BKN016
11:30 a.m.
M
59 °F 6¼ mi+ 1.400 ft 300° 300° 7 kt METAR LFCK 300930Z AUTO 30007KT 9999 SCT008 OVC014 15/14 Q1017 BECMG BKN016
11:00 a.m.
I
59 °F 2⅜ mi 500 ft 300° 300° 9 kt METAR LFCK 300900Z AUTO 30009KT 3800 BR BKN005 BKN009 OVC013 15/14 Q1016 BECMG 9999 NSW BKN016
10:30 a.m.
I
59 °F 1⅝ mi 800 ft 300° 300° 8 kt METAR LFCK 300830Z AUTO 30008KT 2700 BR BKN008 OVC012 15/14 Q1016 BECMG 9999 NSW BKN016
10:00 a.m.
I
61 °F 5⅝ mi 700 ft 280° 280° 7 kt METAR LFCK 300800Z AUTO 28007KT 9000 OVC007 16/15 Q1016 BECMG BKN016
9:30 a.m.
I
61 °F 6¼ mi+ 700 ft 290° 290° 6 kt METAR LFCK 300730Z AUTO 29006KT 9999 OVC007 16/15 Q1016 BECMG BKN016
9:00 a.m.
I
61 °F 5 mi 700 ft 280° 280° 7 kt METAR LFCK 300700Z AUTO 28007KT 230V310 8000 OVC007 16/15 Q1015 TEMPO 4000 -RADZ BECMG BKN016
8:30 a.m.
I
61 °F 6¼ mi+ 600 ft 270° 270° 8 kt METAR LFCK 300630Z AUTO 27008KT 9999 OVC006 16/15 Q1015 TEMPO 4000 -RADZ BECMG BKN016
8:00 a.m.
I
61 °F 6¼ mi+ 700 ft 260° 260° 7 kt METAR LFCK 300600Z AUTO 26007KT 9999 OVC007 16/15 Q1015 TEMPO 4000 -RADZ OVC004
7:30 a.m.
I
63 °F 6¼ mi+ 700 ft 280° 280° 4 kt METAR LFCK 300530Z AUTO 28004KT 250V310 9999 BKN007 OVC011 17/15 Q1014
7:00 a.m.
I
63 °F 6¼ mi+ 900 ft 280° 280° 4 kt METAR LFCK 300500Z AUTO 28004KT 9999 OVC009 17/15 Q1014
6:30 a.m.
I
63 °F 6¼ mi+ 700 ft 270° 270° 4 kt METAR LFCK 300430Z AUTO 27004KT 9999 BKN007 OVC018 17/15 Q1015
6:00 a.m.
I
63 °F 6¼ mi+ 600 ft 280° 280° 6 kt METAR LFCK 300400Z AUTO 28006KT 9999 BKN006 BKN017 OVC023 17/15 Q1014
5:30 a.m.
M
63 °F 6¼ mi+ 1.600 ft 300° 300° 9 kt METAR LFCK 300330Z AUTO 30009KT 9999 OVC016 17/15 Q1014
5:00 a.m.
M
64 °F 6¼ mi+ 1.000 ft 300° 300° 5 kt METAR LFCK 300300Z AUTO 30005KT 260V330 9999 BKN010 OVC014 18/16 Q1014
4:30 a.m.
M
64 °F 6¼ mi+ 1.200 ft 290° 290° 4 kt METAR LFCK 300230Z AUTO 29004KT 250V310 9999 BKN012 OVC028 18/16 Q1014
4:00 a.m.
M
63 °F 6¼ mi+ 2.700 ft Var Var 3 kt METAR LFCK 300200Z AUTO VRB03KT 9999 OVC027 17/16 Q1014
3:30 a.m.
V
63 °F 6¼ mi+ - 240° 240° 5 kt METAR LFCK 300130Z AUTO 24005KT 9999 SCT027 17/16 Q1014
3:00 a.m.
V
64 °F 6¼ mi+ - 310° 310° 7 kt METAR LFCK 300100Z AUTO 31007KT CAVOK 18/16 Q1014
2:30 a.m.
V
64 °F 6¼ mi+ - 140° 140° 7 kt METAR LFCK 300030Z AUTO 14007KT 080V180 9999 ///CB 18/16 Q1014
2:00 a.m.
V
64 °F 6¼ mi+ 5.800 ft 090° 090° 7 kt METAR LFCK 300000Z AUTO 09007KT 9999 -TSRA FEW034/// BKN058/// BKN088/// ///CB 18/16 Q1015
1:30 a.m.
V
70 °F 6¼ mi+ - 250° 250° 15 kt METAR LFCK 292330Z AUTO 25015KT 9999 VCTS ///CB 21/15 Q1016
1:00 a.m.
V
70 °F 6¼ mi+ - 260° 260° 12 kt METAR LFCK 292300Z AUTO 26012KT CAVOK 21/15 Q1015
12:30 a.m.
V
70 °F 6¼ mi+ - 260° 260° 6 kt METAR LFCK 292230Z AUTO 26006KT 230V290 CAVOK 21/15 Q1015
12:00 a.m.
V
68 °F 6¼ mi+ - 280° 280° 4 kt METAR LFCK 292200Z AUTO 28004KT 250V310 CAVOK 20/15 Q1014

29 juni 2022

Tijd Code Weer Temp. Zicht Plafond Wind METAR/SPECI
11:30 p.m.
V
70 °F 6¼ mi+ - 260° 260° 3 kt METAR LFCK 292130Z AUTO 26003KT CAVOK 21/14 Q1014
11:00 p.m.
V
70 °F 6¼ mi+ - 240° 240° 3 kt METAR LFCK 292100Z AUTO 24003KT CAVOK 21/14 Q1014 TEMPO BKN040 FEW060CB
10:30 p.m.
V
72 °F 6¼ mi+ - 220° 220° 5 kt METAR LFCK 292030Z AUTO 22005KT CAVOK 22/14 Q1014 TEMPO BKN040 FEW060CB
10:00 p.m.
V
75 °F 6¼ mi+ - 280° 280° 4 kt METAR LFCK 292000Z AUTO 28004KT CAVOK 24/13 Q1013 NOSIG
9:30 p.m.
V
77 °F 6¼ mi+ - 300° 300° 8 kt METAR LFCK 291930Z AUTO 30008KT 9999 ///TCU 25/13 Q1013 BECMG NSC
9:00 p.m.
V
79 °F 6¼ mi+ - 290° 290° 8 kt METAR LFCK 291900Z AUTO 29008KT CAVOK 26/14 Q1013 NOSIG
8:30 p.m.
V
82 °F 6¼ mi+ - 290° 290° 12 kt METAR LFCK 291830Z AUTO 29012KT CAVOK 28/13 Q1013 NOSIG
8:00 p.m.
V
84 °F 6¼ mi+ - 290° 290° 12 kt METAR LFCK 291800Z AUTO 29012KT CAVOK 29/11 Q1012 NOSIG
7:30 p.m.
V
86 °F 6¼ mi+ - 290° 290° 12 kt METAR LFCK 291730Z AUTO 29012KT CAVOK 30/12 Q1012 NOSIG
7:00 p.m.
V
88 °F 6¼ mi+ - 280° 280° 9 kt METAR LFCK 291700Z AUTO 28009KT 240V300 CAVOK 31/11 Q1012 NOSIG
6:30 p.m.
V
88 °F 6¼ mi+ - 340° 340° 4 kt METAR LFCK 291630Z AUTO 34004KT 290V070 CAVOK 31/09 Q1012 NOSIG
6:00 p.m.
V
88 °F 6¼ mi+ - Var Var 2 kt METAR LFCK 291600Z AUTO VRB02KT CAVOK 31/09 Q1012 NOSIG
5:30 p.m.
V
88 °F 6¼ mi+ - Var Var 2 kt METAR LFCK 291530Z AUTO VRB02KT CAVOK 31/10 Q1012 NOSIG
5:00 p.m.
V
86 °F 6¼ mi+ - 340° 340° 5 kt METAR LFCK 291500Z AUTO 34005KT 270V040 CAVOK 30/09 Q1013 NOSIG
Oudere gegevens

Installeer onze app

Gemakkelijke toegang tot al het luchtvaartweer op je mobiele telefoon en tablet.
Met veel functies die niet op de website beschikbaar zijn, zoals offline ondersteuning en een persoonlijke lijst van vliegvelden.

Met cookies volgen wij en derde partijen jouw internetgedrag binnen onze site. Als je verdergaat gaan we ervan uit dat je dit goedvindt. Meer info